Location: Paris
(48.6709°N, 2.3750°E)
Time: 09:55:03
(UTC+02:00)

LO-87 - Pass Details

Date: 02 July 2022
Orbit: 450 x 466 km, 97.4° (Epoch: 17 August)

Event Time Altitude Azimuth Distance (km) Brightness Sun altitude
Exits shadow 01:24:32 52° 185° (S) 581 ? -18.0°
Maximum altitude 01:25:16 77° 257° (WSW) 481 ? -18.0°
Drops below altitude 10° 01:28:45 10° 344° (NNW) 1,628 ? -18.0°
Sets 01:30:50 0° 346° (NNW) 2,513 ? -18.1°
